Location: Logan
(41.7360°N, 111.8340°W)
Time: 03:24:07
(UTC-07:00)

Daily predictions for brighter satellites

Satellite Brightness Start Highest point End
(mag) Time Altitude Azimuth Time Altitude Azimuth Time Altitude Azimuth
SJ 16-02 3.9 04:00:36 18° E 04:00:36 18° E 04:03:09 10° NE
CZ-3 R/B 3.9 04:03:26 45° SW 04:08:06 50° S 04:17:31 10° ESE
Cosmos 1980 Rocket 3.5 04:09:17 34° ESE 04:09:55 35° ESE 04:15:00 10° NE
ATLAS 5 CENTAUR R/B 4.3 04:17:16 12° SE 04:19:01 14° ESE 04:21:30 10° ENE
Cosmos 1697 Rocket 2.8 04:40:12 62° N 04:40:12 62° N 04:44:57 10° NNE
SL-16 R/B 4.4 04:41:54 10° SSE 04:46:15 23° E 04:50:37 10° NE
COSMOS 2455 3.5 04:46:06 10° NNW 04:52:01 54° NE 04:57:53 10° SE
Cosmos 1934 Rocket 4.0 04:48:01 12° S 04:53:58 82° E 05:00:22 10° N
Cosmos 372 Rocket 4.4 04:52:18 33° S 04:54:25 60° ESE 04:59:29 10° NNE
Okean O Rocket 2.0 04:50:15 10° NNE 04:53:52 59° NNE 04:53:52 59° NNE
CENTAUR R/B 4.5 05:00:22 20° SSW 05:00:22 20° SSW 05:03:05 10° SSW
CZ-4B R/B 4.3 04:52:36 10° NNE 04:57:01 69° E 04:57:30 62° SE
Aureole 1 Rocket 3.9 04:51:38 10° NNW 04:58:54 63° WSW 05:04:26 10° S
Cosmos 1125 Rocket 3.6 05:01:38 30° S 05:04:12 73° ESE 05:09:24 10° NNE
Cosmos 2123 Rocket 3.9 05:01:11 10° N 05:07:27 90° ESE 05:13:44 10° S
Lacrosse 5 rocket 3.0 05:14:00 21° S 05:14:00 21° S 05:15:35 10° SSE
CZ-4B R/B 3.1 05:07:10 10° NNE 05:12:39 80° WNW 05:16:52 18° SSW
USA 215 4.3 05:11:55 10° S 05:16:08 26° SW 05:16:08 26° SW
Cosmos 2242 Rocket 4.5 05:13:36 10° S 05:18:02 52° E 05:22:29 10° NNE
Cosmos 1821 Rocket 4.1 05:17:27 40° WSW 05:18:54 47° WNW 05:24:55 10° N
ADEOS II 4.1 05:17:32 10° NNW 05:18:31 13° NNW 05:18:31 13° NNW
Cosmos 489 Rocket 4.4 05:17:53 10° SSW 05:24:11 87° WNW 05:30:27 10° NNE
Cosmos 405 Rocket 3.4 05:21:41 10° S 05:25:34 57° E 05:29:24 10° NNE
Cosmos 2263 Rocket 3.4 05:20:44 10° NNW 05:26:06 42° ENE 05:31:28 10° SE
CZ-2C R/B 3.7 05:25:09 10° NNE 05:30:02 43° E 05:34:57 10° S
CZ-4B DEB 4.4 05:25:52 10° N 05:31:06 48° WNW 05:34:00 25° SW
BREEZE M DEB (TANK) 3.6 05:32:36 15° NNE 05:32:36 15° NNE 05:33:30 10° NE
Cosmos 2360 4.3 05:29:49 31° WSW 05:32:21 54° WNW 05:37:57 10° NNE
IRS-1C Rocket 4.0 05:29:50 10° N 05:35:04 64° WNW 05:40:16 10° SSW
Meteor 2-10 Rocket 4.0 05:34:48 34° W 05:35:06 35° WNW 05:39:42 10° N
SJ 16-02 1.7 05:37:40 38° W 05:38:25 41° WNW 05:42:37 10° N
Cosmos 1733 Rocket 3.0 05:35:34 10° N 05:39:59 86° E 05:44:23 10° S
Cosmos 1862 Rocket 3.6 05:38:16 10° S 05:42:36 81° E 05:47:01 10° N
Cosmos 2322 Rocket 2.5 05:37:48 10° SSW 05:43:25 68° ESE 05:49:05 10° NNE
Meteor 2-17 Rocket 4.4 05:39:14 10° SSW 05:45:11 59° W 05:51:13 10° N
Radarsat Rocket 4.4 05:41:14 10° NNE 05:47:03 65° ESE 05:53:15 10° S
EO 1 Del DPAF 4.4 05:44:40 10° SE 05:48:19 46° ENE 05:52:01 10° N
Cosmos 1269 Rocket 4.0 05:44:28 10° NNW 05:49:42 63° WSW 05:54:54 10° S
COSMO-SKYMED 1 2.4 05:47:19 10° S 05:51:39 75° W 05:56:00 10° NNW
Cosmos 2360 Rocket 4.1 05:46:50 10° SSE 05:51:49 33° ESE 05:56:49 10° NE
Landsat 4 4.0 05:48:23 10° SSE 05:52:04 67° ENE 05:55:47 10° N
Cosmos 2227 4.3 05:47:35 10° NNW 05:53:03 53° WSW 05:58:28 10° S
CZ-2C R/B 3.8 05:48:40 10° S 05:53:14 53° W 05:57:45 10° NNW
Okean-O 2.7 05:48:50 10° NNE 05:53:18 84° ESE 05:57:43 10° SSW
Cosmos 1980 Rocket 2.8 05:51:06 22° WSW 05:53:52 35° WNW 05:59:01 10° N
Cosmos 405 3.3 05:53:25 10° NNW 05:56:50 42° W 06:00:13 10° SSW
ATLAS 5 CENTAUR R/B 1.7 05:58:52 13° SW 06:02:56 64° NW 06:07:54 10° NNE
Cosmos 1605 Rocket 4.3 05:58:49 10° SW 06:04:32 41° WNW 06:10:16 10° N
NOAA 6 4.0 06:00:41 10° N 06:05:46 61° WNW 06:10:49 10° SSW
Cosmos 1441 Rocket 3.5 06:02:20 10° SSW 06:06:10 45° WNW 06:10:01 10° N
EXPRESS MD2 4.2 06:03:26 18° WNW 06:06:35 74° SSW 06:15:01 10° SE
PAYLOAD A 3.9 06:02:45 10° N 06:07:29 60° WNW 06:12:20 10° SSW
Cosmos 1933 4.4 06:05:44 17° WSW 06:07:40 24° WNW 06:10:59 10° NNW
Cosmos 2100 Rocket 4.0 06:04:42 10° S 06:10:51 88° W 06:17:02 10° N
Meteor 1-31 Rocket 4.4 06:08:33 10° NNW 06:10:54 16° WNW 06:10:54 16° WNW
DMSP B5D1-3 4.4 06:06:42 10° S 06:11:47 80° WSW 06:16:55 10° NNW
ISS -0.6 06:15:09 10° SSE 06:16:18 11° SE 06:17:29 10° ESE
Hubble Space Telescope 3.2 06:15:25 10° SSW 06:17:02 12° S 06:18:39 10° SSE
MSX 3.8 06:14:39 10° N 06:20:26 76° WNW 06:26:11 10° SSW
Cosmos 1782 2.8 06:17:02 10° S 06:21:04 86° WNW 06:25:07 10° N
Cosmos 1697 Rocket 4.4 06:21:58 11° WNW 06:24:15 14° NW 06:26:59 10° NNW
CZ-4 R/B 4.0 06:23:06 10° NE 06:26:19 25° E 06:29:32 10° SSE
IDEFIX/ARIANE 42P 3.0 06:21:42 10° N 06:26:33 40° WNW 06:31:22 10° SW
SJ-12 3.9 06:23:47 10° N 06:27:57 75° WNW 06:32:03 10° SSW
SL-16 R/B 2.4 06:24:28 10° SW 06:29:57 50° WNW 06:35:30 10° NNE
Meteor 1-4 Rocket 3.8 06:28:22 10° N 06:32:03 49° ENE 06:35:43 10° SSE
Aureole 2 Rocket 2.1 06:29:26 10° SSW 06:32:06 71° ESE 06:34:49 10° NNE
Cosmos 1782 Rocket 3.7 06:29:37 10° N 06:33:59 79° E 06:38:19 10° S
Cosmos 1459 Rocket 4.1 06:29:02 10° SSW 06:35:12 62° W 06:41:31 10° N
Thor Agena Rocket 4.1 06:30:49 10° SSE 06:36:00 64° ENE 06:41:10 10° N
Cosmos 2251 Rocket 3.5 06:31:10 10° NNW 06:36:29 83° WSW 06:41:48 10° SSE
COSMOS 2455 3.8 06:32:44 10° NW 06:37:33 25° WSW 06:42:20 10° SSW
Cosmos 2173 Rocket 4.0 06:31:34 10° SSW 06:37:39 60° W 06:43:42 10° N
Cosmos 2016 Rocket 4.1 06:32:03 10° S 06:38:22 83° W 06:44:47 10° N
Cosmos 1606 3.2 06:38:28 10° SSW 06:42:02 38° WNW 06:45:37 10° N
Cosmos 2061 Rocket 4.0 06:35:57 10° SSW 06:42:04 65° W 06:48:14 10° N
Cosmos 1802 Rocket 4.1 06:36:37 10° SSW 06:42:57 65° W 06:49:16 10° N
Cosmos 1437 Rocket 3.0 06:41:22 10° NNW 06:45:19 53° W 06:49:11 10° S
